Lid_Strength_Index
2 2 2 2 2 2 2 2 1 1 1 1 1 1 1 1 1 5 8 4 4 -1 -1 5 5 5 6 8 9 11 14 17 16 14 13 11 11 9 9 9 8 8 8 6 6
2 2 2 2 2 2 2 2 1 1 1 1 1 1 1 1 5 7 2 -2 -2 -2 7 7 8 7 9 10 10 12 15 14 13 12 14 13 12 11 9 10 9 8 7 4 3
3 2 2 2 2 2 2 2 1 1 1 1 1 1 1 2 9 8 -1 -3 -3 -1 5 6 7 8 11 11 12 14 14 12 12 11 11 12 12 11 10 11 9 8 8 4 3
3 3 3 2 2 2 2 2 2 2 2 2 2 1 1 5 15 7 -2 -3 -4 1 5 7 8 11 13 13 12 11 12 11 11 11 12 12 11 11 10 9 7 7 6 4 4
3 3 3 3 3 2 2 2 2 2 2 2 1 1 5 8 8 4 -3 -2 2 5 6 7 9 11 12 12 11 12 12 11 10 11 12 11 11 10 10 7 7 7 5 4 4
3 3 3 3 3 2 2 2 2 2 2 1 1 1 7 10 5 4 6 6 6 7 9 8 8 9 11 11 11 10 11 11 11 9 11 10 10 9 9 7 7 8 6 4 4
3 3 3 3 2 2 2 3 3 2 2 1 0 3 7 7 4 5 6 8 7 7 8 8 8 8 10 11 9 10 12 11 11 11 10 9 11 10 8 8 8 8 7 5 4
3 3 3 2 2 2 2 2 3 2 1 1 0 5 8 4 4 5 6 6 6 6 6 6 8 9 10 10 10 11 12 14 11 10 10 10 13 10 7 9 9 7 5 5 5
3 3 3 2 2 2 2 3 2 1 1 1 6 8 9 3 6 5 5 6 6 6 6 5 7 9 10 12 13 13 14 14 12 10 11 11 13 9 8 9 9 8 6 5 5
3 3 3 3 3 3 3 3 2 2 2 2 5 9 7 7 6 5 5 5 6 6 7 8 10 11 13 13 16 15 14 13 13 10 10 12 12 9 8 9 10 9 6 6 6
3 3 3 3 3 3 5 6 8 8 8 9 8 7 6 5 5 6 5 6 6 7 11 10 11 14 12 11 11 11 12 13 12 10 12 12 12 9 8 8 8 7 7 7 6
3 4 3 3 3 3 6 7 6 7 9 7 6 6 5 5 7 6 5 8 8 11 10 11 13 10 10 10 10 11 13 13 12 10 11 11 12 9 8 9 8 8 8 7 6
4 4 3 3 3 5 7 5 4 6 10 7 6 6 5 6 7 7 6 8 10 10 11 13 11 8 9 11 11 13 13 13 12 11 11 12 13 11 9 8 8 8 7 7 7
4 4 4 4 5 6 6 4 5 5 12 8 7 6 7 7 8 6 6 8 9 11 11 11 9 9 10 11 11 14 11 11 11 13 16 13 18 13 11 10 9 9 9 8 8
4 4 4 4 8 6 4 5 5 5 17 8 8 7 8 9 8 7 6 7 10 10 9 11 10 11 11 10 10 11 9 11 12 14 16 14 17 14 12 12 10 9 8 8 8
4 4 4 5 7 5 5 6 6 11 17 10 9 10 10 9 8 7 7 6 7 9 8 10 7 10 10 9 9 9 11 13 14 16 18 16 16 17 14 12 10 8 7 7 7
4 4 6 5 7 6 5 6 11 15 8 11 11 9 10 10 9 8 8 9 11 13 12 10 9 8 8 10 10 11 15 18 18 19 19 14 16 16 12 10 8 8 8 7 7
5 5 5 5 7 5 6 9 15 10 10 8 8 10 11 9 9 8 9 10 9 10 12 13 14 10 8 10 12 14 15 18 20 20 18 14 17 15 10 9 7 7 8 7 7
6 5 4 4 4 5 8 13 12 10 9 9 9 11 10 8 9 9 10 10 9 10 13 14 13 8 8 9 10 13 15 13 16 17 19 17 15 12 10 9 8 8 8 8 8
6 5 4 3 4 5 10 12 10 8 8 9 12 10 12 10 10 11 10 8 8 8 10 12 14 10 8 8 9 12 11 16 17 19 20 18 17 16 12 10 9 9 9 8 8
5 7 4 5 5 7 11 11 8 7 7 9 10 11 11 11 10 11 11 9 7 8 9 11 13 12 11 12 13 13 14 15 16 17 20 21 18 14 12 11 10 9 8 8 8
8 9 4 5 9 11 12 10 8 7 6 7 8 8 10 9 10 11 11 9 7 8 11 11 13 16 14 11 10 12 14 15 19 18 18 19 18 11 10 9 8 8 7 8 8
8 8 4 5 12 12 9 8 7 8 8 8 8 8 8 10 12 10 9 7 7 8 11 12 16 19 16 15 12 12 12 13 15 17 18 19 17 9 9 9 9 10 9 8 8
7 10 8 8 9 11 11 10 9 7 7 8 8 8 10 10 10 11 10 7 6 7 6 10 16 16 18 17 13 14 12 12 15 20 17 16 14 12 10 10 9 9 9 9 8
8 10 9 12 11 10 10 9 10 10 8 8 9 9 10 13 12 11 10 9 8 7 9 12 15 15 14 12 11 12 12 12 14 13 16 14 13 12 10 10 9 8 8 7 7
9 10 9 11 10 10 10 11 9 8 9 10 10 8 9 12 11 12 11 12 12 11 11 12 16 14 14 11 12 13 12 12 12 11 12 12 14 9 8 8 8 8 7 7 7
8 8 9 11 10 11 11 9 9 9 9 8 9 10 11 9 9 9 10 10 11 12 13 13 15 17 17 13 14 17 13 12 11 11 11 15 12 9 9 9 8 8 7 7 7